Weather History for Johnstown, PA

Change the Weather History Date:

Tuesday, February 4, 2014

  Actual Average Record
Temperature  
Mean Temperature 20 °F 25 °F  
Max Temperature 26 °F 32 °F 63 °F (1903)
Min Temperature 14 °F 19 °F -8 °F (1985)
Degree Days  
Heating Degree Days 45 40  
Month to date heating degree days 143 160  
Since 1 July heating degree days 4262 3977  
Cooling Degree Days 0 0  
Month to date cooling degree days 0 0  
Year to date cooling degree days 0 0  
Moisture  
Dew Point 17 °F    
Average Humidity 83    
Maximum Humidity 92    
Minimum Humidity 74    
Precipitation  
Precipitation 0.10 in 0.08 in 1.15 in (1961)
Month to date precipitation 0.76 0.33  
Year to date precipitation 1.64 3.21  
Sea Level Pressure  
Sea Level Pressure 30.23 in    
Wind  
Wind Speed 6 mph (SE)    
Max Wind Speed 13 mph    
Max Gust Speed 18 mph    
Visibility 6 miles    
Events Snow    
T = Trace of Precipitation, MM = Missing Value Source: NWS Daily Summary

Daily Weather History Graph

Daily Weather History Graph

Search for Another Location

Airport:

Trip Planner

Search our weather history database for the weather conditions in past years. The results will help you decide how hot, cold, wet, or windy it might be!

Date:

Astronomy

Feb. 04, 2014 Rise Set
Actual Time 7:21 AM EST 5:37 PM EST
Civil Twilight 6:52 AM EST 6:06 PM EST
Nautical Twilight 6:20 AM EST 6:38 PM EST
Astronomical Twilight 5:48 AM EST 7:10 PM EST
Moon 9:57 AM EST (2/4) 11:30 PM EST (2/4)
Length of Visible Light 11h 13m
Length of Day
10h 16m
Waxing Crescent, 29% of the Moon is Illuminated
Feb 4
Waxing Crescent
Feb 6
First Quarter
Feb 14
Full
Feb 22
Last Quarter
Mar 1
New

Hourly Weather History & Observations

Time (EST) Temp. Windchill Dew Point Humidity Pressure Visibility Wind Dir Wind Speed Gust Speed Precip Events Conditions
12:54 AM 18.0 °F 12.7 °F 15.1 °F 88% 30.33 in 10.0 mi West 3.5 mph - N/A   Clear
1:12 AM 19.0 °F - 15.1 °F 85% 30.23 in 10.0 mi Calm Calm - N/A   Mostly Cloudy
1:54 AM 17.1 °F 11.7 °F 14.0 °F 88% 30.35 in 9.0 mi WSW 3.5 mph - N/A   Mostly Cloudy
2:54 AM 17.1 °F 11.7 °F 15.1 °F 92% 30.34 in 6.0 mi South 3.5 mph - N/A   Overcast
3:54 AM 16.0 °F 10.4 °F 14.0 °F 92% 30.35 in 7.0 mi WSW 3.5 mph - N/A   Mostly Cloudy
4:08 AM 17.1 °F 10.0 °F 14.0 °F 88% 30.25 in 7.0 mi SSW 4.6 mph - N/A   Scattered Clouds
4:32 AM 17.1 °F 10.0 °F 14.0 °F 88% 30.26 in 7.0 mi SW 4.6 mph - N/A   Mostly Cloudy
4:54 AM 16.0 °F 8.8 °F 12.9 °F 88% 30.37 in 7.0 mi SSW 4.6 mph - N/A   Mostly Cloudy
5:54 AM 15.1 °F - 12.9 °F 91% 30.36 in 5.0 mi Calm Calm - N/A   Scattered Clouds
6:54 AM 16.0 °F 10.4 °F 14.0 °F 92% 30.37 in 5.0 mi South 3.5 mph - N/A   Clear
7:54 AM 15.1 °F 9.4 °F 12.9 °F 91% 30.39 in 4.0 mi South 3.5 mph - N/A   Clear
8:54 AM 17.1 °F - 15.1 °F 92% 30.40 in 5.0 mi Calm Calm - N/A   Clear
9:54 AM 18.0 °F - 16.0 °F 92% 30.39 in 7.0 mi Calm Calm - N/A   Clear
10:54 AM 21.9 °F - 19.0 °F 89% 30.40 in 10.0 mi Calm Calm - N/A   Clear
11:54 AM 25.0 °F 17.1 °F 18.0 °F 75% 30.38 in 10.0 mi SSE 6.9 mph - N/A   Partly Cloudy
12:54 PM 25.0 °F 14.8 °F 19.9 °F 81% 30.31 in 10.0 mi SSE 10.4 mph - N/A   Partly Cloudy
1:49 PM 24.8 °F 16.1 °F 17.6 °F 74% 30.19 in 10.0 mi ESE 8.1 mph - N/A   Mostly Cloudy
1:54 PM 25.0 °F 17.1 °F 18.0 °F 75% 30.30 in 10.0 mi SE 6.9 mph - N/A   Scattered Clouds
2:54 PM 24.1 °F 14.4 °F 18.0 °F 77% 30.27 in 10.0 mi SE 9.2 mph - N/A   Mostly Cloudy
3:54 PM 24.1 °F 14.4 °F 19.0 °F 81% 30.28 in 10.0 mi SSE 9.2 mph - N/A   Overcast
4:54 PM 23.0 °F 14.7 °F 19.0 °F 85% 30.27 in 10.0 mi ESE 6.9 mph - N/A   Mostly Cloudy
5:30 PM 23.0 °F 17.0 °F 19.0 °F 85% 30.16 in 9.0 mi East 4.6 mph - N/A   Mostly Cloudy
5:37 PM 23.0 °F 17.0 °F 19.0 °F 85% 30.15 in 9.0 mi SE 4.6 mph - N/A   Scattered Clouds
5:54 PM 23.0 °F 14.7 °F 19.0 °F 85% 30.27 in 9.0 mi SE 6.9 mph - N/A   Mostly Cloudy
6:13 PM 21.9 °F 12.5 °F 19.0 °F 89% 30.16 in 8.0 mi SE 8.1 mph - N/A   Overcast
6:54 PM 21.9 °F 15.7 °F 19.0 °F 89% 30.26 in 8.0 mi ESE 4.6 mph - N/A   Overcast
7:54 PM 21.9 °F 11.7 °F 19.0 °F 89% 30.22 in 7.0 mi East 9.2 mph - N/A   Overcast
8:54 PM 21.9 °F 11.7 °F 19.9 °F 92% 30.20 in 5.0 mi ESE 9.2 mph - N/A   Overcast
9:42 PM 21.0 °F 10.6 °F 19.0 °F 92% 30.07 in 3.0 mi ESE 9.2 mph - N/A   Overcast
9:54 PM 21.0 °F 11.4 °F 19.0 °F 92% 30.17 in 3.0 mi East 8.1 mph - N/A   Overcast
10:10 PM 21.0 °F 13.4 °F 19.9 °F 96% 30.09 in 2.0 mi SE 5.8 mph - 0.00 in Snow Light Snow
10:18 PM 21.0 °F 13.4 °F 19.9 °F 96% 30.09 in 1.8 mi SE 5.8 mph - 0.00 in Snow Light Snow
10:41 PM 21.0 °F 10.6 °F 19.0 °F 92% 30.05 in 0.8 mi ESE 9.2 mph - 0.02 in Snow Light Snow
10:51 PM 21.2 °F 12.6 °F 19.4 °F 93% 30.04 in 0.8 mi ESE 6.9 mph - 0.03 in Snow Light Snow
10:54 PM 21.0 °F 12.4 °F 19.0 °F 92% 30.14 in 0.8 mi ESE 6.9 mph - 0.03 in Snow Light Snow
11:02 PM 21.0 °F 12.4 °F 19.0 °F 92% 30.01 in 1.0 mi East 6.9 mph - 0.01 in Snow Light Snow
11:12 PM 21.0 °F 12.4 °F 19.0 °F 92% 30.00 in 1.2 mi ENE 6.9 mph - 0.02 in Snow Light Snow
11:52 PM 21.2 °F 12.6 °F 19.4 °F 93% 29.96 in 2.0 mi East 6.9 mph - 0.06 in Snow Light Snow
11:54 PM 21.0 °F 12.4 °F 19.0 °F 92% 30.06 in 1.8 mi East 6.9 mph - 0.06 in Snow Light Snow